| time (UTC) | temp C | wind direction | speed KPH | gust KPH | rain 1hr cm | rain 24hr cm | rain mn cm | humidity % | barometer mb |
| 20260508004504 | 15 | 110 | 4.8 | 8.0 | 0.00 | 0.00 | 0.00 | 67 | 1015.4 |
| 20260508004500 | 15 | 110 | 4.8 | 8.0 | 0.00 | 0.00 | 0.00 | 67 | 1010.9 |
| 20260508004101 | 15 | 86 | 3.2 | 6.4 | 0.00 | 0.00 | 0.00 | 68 | 1010.8 |
| 20260508004001 | 15 | 86 | 3.2 | 6.4 | 0.00 | 0.00 | 0.00 | 67 | 1015.3 |
| 20260508003501 | 15 | 93 | 3.2 | 6.4 | 0.00 | 0.00 | 0.00 | 68 | 1010.8 |
| 20260508003122 | 16 | 95 | 3.2 | 6.4 | 0.00 | 0.00 | 0.00 | 66 | 1010.8 |
| 20260508003002 | 15 | 98 | 1.6 | 6.4 | 0.00 | 0.00 | 0.00 | 66 | 1015.3 |
| 20260508002602 | 15 | 91 | 0.0 | 3.2 | 0.00 | 0.00 | 0.00 | 68 | 1010.8 |
| 20260508002503 | 15 | 91 | 1.6 | 3.2 | 0.00 | 0.00 | 0.00 | 69 | 1015.3 |
| 20260508002002 | 15 | 101 | 1.6 | 4.8 | 0.00 | 0.00 | 0.00 | 68 | 1015.3 |
| 20260508001603 | 15 | 80 | 1.6 | 4.8 | 0.00 | 0.00 | 0.00 | 67 | 1010.8 |
| 20260508001100 | 16 | 73 | 1.6 | 4.8 | 0.00 | 0.00 | 0.00 | 67 | 1010.8 |
| 20260508001002 | 16 | 75 | 1.6 | 4.8 | 0.00 | 0.00 | 0.00 | 67 | 1015.3 |
| 20260508000601 | 16 | 86 | 1.6 | 4.8 | 0.00 | 0.00 | 0.00 | 67 | 1010.8 |
| 20260508000005 | 16 | 92 | 1.6 | 4.8 | 0.00 | 0.00 | 0.00 | 66 | 1015.3 |
| 20260508000003 | 16 | 92 | 1.6 | 4.8 | 0.00 | 0.00 | 0.00 | 66 | 1010.7 |
| 20260507235504 | 16 | 102 | 0.0 | 4.8 | 0.00 | 0.00 | 0.00 | 66 | 1010.8 |
| 20260507235100 | 16 | 91 | 1.6 | 4.8 | 0.00 | 0.00 | 0.00 | 64 | 1010.8 |
| 20260507235002 | 16 | 84 | 1.6 | 4.8 | 0.00 | 0.00 | 0.00 | 64 | 1015.3 |
| 20260507234601 | 16 | 81 | 0.0 | 3.2 | 0.00 | 0.00 | 0.00 | 64 | 1010.8 |
| 20260507234501 | 16 | 63 | 0.0 | 3.2 | 0.00 | 0.00 | 0.00 | 63 | 1015.3 |
| 20260507234100 | 16 | 89 | 0.0 | 1.6 | 0.00 | 0.00 | 0.00 | 63 | 1010.9 |
| 20260507234001 | 16 | 78 | 0.0 | 1.6 | 0.00 | 0.00 | 0.00 | 63 | 1015.4 |
| 20260507233601 | 16 | 94 | 0.0 | 3.2 | 0.00 | 0.00 | 0.00 | 63 | 1010.8 |
| 20260507233501 | 16 | 94 | 0.0 | 3.2 | 0.00 | 0.00 | 0.00 | 63 | 1015.4 |
| 20260507233100 | 16 | 94 | 0.0 | 4.8 | 0.00 | 0.00 | 0.00 | 62 | 1010.9 |
| 20260507233004 | 16 | 96 | 1.6 | 4.8 | 0.00 | 0.00 | 0.00 | 63 | 1015.4 |
| 20260507233001 | 16 | 96 | 0.0 | 4.8 | 0.00 | 0.00 | 0.00 | 63 | 1010.9 |
| 20260507232600 | 16 | 159 | 1.6 | 4.8 | 0.00 | 0.00 | 0.00 | 62 | 1010.9 |
| 20260507232501 | 16 | 133 | 1.6 | 4.8 | 0.00 | 0.00 | 0.00 | 62 | 1015.4 |
| 20260507232100 | 16 | 163 | 0.0 | 1.6 | 0.00 | 0.00 | 0.00 | 62 | 1011.0 |
| 20260507232001 | 16 | 163 | 0.0 | 1.6 | 0.00 | 0.00 | 0.00 | 62 | 1015.5 |
| 20260507231600 | 16 | 108 | 0.0 | 1.6 | 0.00 | 0.00 | 0.00 | 63 | 1011.0 |
| 20260507231501 | 16 | 108 | 0.0 | 3.2 | 0.00 | 0.00 | 0.00 | 62 | 1015.5 |
| 20260507231100 | 16 | 97 | 0.0 | 3.2 | 0.00 | 0.00 | 0.00 | 63 | 1011.0 |
| 20260507231002 | 16 | 103 | 1.6 | 4.8 | 0.00 | 0.00 | 0.00 | 63 | 1015.6 |
| 20260507230600 | 16 | 200 | 0.0 | 4.8 | 0.00 | 0.00 | 0.00 | 63 | 1011.1 |
| 20260507230501 | 16 | 210 | 3.2 | 4.8 | 0.00 | 0.00 | 0.00 | 63 | 1015.6 |
| 20260507230114 | 16 | 98 | 1.6 | 4.8 | 0.00 | 0.00 | 0.00 | 63 | 1011.1 |
| 20260507230006 | 16 | 92 | 3.2 | 4.8 | 0.00 | 0.00 | 0.00 | 63 | 1015.6 |
| 20260507230002 | 16 | 92 | 1.6 | 4.8 | 0.00 | 0.00 | 0.00 | 63 | 1011.1 |
| 20260507225600 | 16 | 83 | 3.2 | 8.0 | 0.00 | 0.00 | 0.00 | 64 | 1011.1 |
| 20260507225500 | 16 | 107 | 3.2 | 8.0 | 0.00 | 0.00 | 0.00 | 64 | 1015.6 |
| 20260507225102 | 16 | 96 | 3.2 | 8.0 | 0.00 | 0.00 | 0.00 | 64 | 1011.1 |
| 20260507225001 | 16 | 83 | 4.8 | 8.0 | 0.00 | 0.00 | 0.00 | 64 | 1015.7 |
| 20260507224601 | 16 | 105 | 3.2 | 8.0 | 0.00 | 0.00 | 0.00 | 65 | 1011.1 |
| 20260507224501 | 16 | 94 | 4.8 | 8.0 | 0.00 | 0.00 | 0.00 | 65 | 1015.7 |
| 20260507224104 | 16 | 115 | 3.2 | 9.7 | 0.00 | 0.00 | 0.00 | 66 | 1011.2 |
| 20260507224002 | 16 | 70 | 4.8 | 9.7 | 0.00 | 0.00 | 0.00 | 67 | 1015.7 |
| 20260507223600 | 16 | 102 | 3.2 | 9.7 | 0.00 | 0.00 | 0.00 | 69 | 1011.1 |
| 20260507223501 | 16 | 86 | 3.2 | 6.4 | 0.00 | 0.00 | 0.00 | 70 | 1015.7 |
| 20260507223210 | 16 | 72 | 3.2 | 6.4 | 0.00 | 0.00 | 0.00 | 72 | 1011.1 |
| 20260507223001 | 16 | 100 | 3.2 | 4.8 | 0.00 | 0.00 | 0.00 | 73 | 1015.7 |
| 20260507222600 | 16 | 99 | 1.6 | 4.8 | 0.00 | 0.00 | 0.00 | 74 | 1011.1 |
| 20260507222100 | 16 | 76 | 1.6 | 4.8 | 0.00 | 0.00 | 0.00 | 72 | 1011.2 |
| 20260507222002 | 16 | 76 | 1.6 | 4.8 | 0.00 | 0.00 | 0.00 | 72 | 1015.7 |
| 20260507221600 | 16 | 96 | 1.6 | 6.4 | 0.00 | 0.00 | 0.00 | 71 | 1011.1 |
| 20260507221501 | 16 | 88 | 3.2 | 6.4 | 0.00 | 0.00 | 0.00 | 71 | 1015.7 |
| 20260507221100 | 16 | 95 | 3.2 | 6.4 | 0.00 | 0.00 | 0.00 | 71 | 1011.1 |
| 20260507221001 | 16 | 124 | 4.8 | 6.4 | 0.00 | 0.00 | 0.00 | 72 | 1015.6 |
| 20260507220600 | 16 | 113 | 3.2 | 6.4 | 0.00 | 0.00 | 0.00 | 73 | 1011.1 |
| 20260507220502 | 16 | 129 | 3.2 | 6.4 | 0.00 | 0.00 | 0.00 | 73 | 1015.6 |
| 20260507220100 | 16 | 94 | 3.2 | 6.4 | 0.00 | 0.00 | 0.00 | 72 | 1011.1 |
| 20260507220009 | 16 | 98 | 3.2 | 6.4 | 0.00 | 0.00 | 0.00 | 72 | 1015.6 |
| 20260507220004 | 16 | 103 | 3.2 | 6.4 | 0.00 | 0.00 | 0.00 | 72 | 1011.1 |
| 20260507215600 | 16 | 59 | 1.6 | 8.0 | 0.00 | 0.00 | 0.00 | 72 | 1011.1 |
| 20260507215508 | 16 | 153 | 3.2 | 8.0 | 0.00 | 0.00 | 0.00 | 72 | 1015.6 |
| 20260507215505 | 16 | 153 | 1.6 | 8.0 | 0.00 | 0.00 | 0.00 | 72 | 1011.1 |
| 20260507215107 | 16 | 130 | 3.2 | 8.0 | 0.00 | 0.00 | 0.00 | 71 | 1011.0 |
| 20260507214959 | 16 | 120 | 3.2 | 8.0 | 0.00 | 0.00 | 0.00 | 71 | 1015.6 |
| 20260507214501 | 16 | 77 | 3.2 | 6.4 | 0.00 | 0.00 | 0.00 | 71 | 1011.0 |
| 20260507214002 | 16 | 137 | 1.6 | 6.4 | 0.00 | 0.00 | 0.00 | 72 | 1011.0 |
| 20260507213604 | 16 | 98 | 1.6 | 6.4 | 0.00 | 0.00 | 0.00 | 72 | 1011.0 |
| 20260507213500 | 16 | 98 | 3.2 | 6.4 | 0.00 | 0.00 | 0.00 | 72 | 1015.6 |
| 20260507213146 | 16 | 88 | 3.2 | 6.4 | 0.00 | 0.00 | 0.00 | 72 | 1011.1 |
| 20260507213001 | 16 | 116 | 1.6 | 6.4 | 0.00 | 0.00 | 0.00 | 72 | 1015.6 |
| 20260507212601 | 16 | 82 | 0.0 | 3.2 | 0.00 | 0.00 | 0.00 | 72 | 1011.0 |
| 20260507212504 | 16 | 74 | 1.6 | 3.2 | 0.00 | 0.00 | 0.00 | 72 | 1015.5 |
| 20260507212059 | 16 | 93 | 0.0 | 3.2 | 0.00 | 0.00 | 0.00 | 73 | 1011.0 |
| 20260507212001 | 16 | 105 | 1.6 | 3.2 | 0.00 | 0.00 | 0.00 | 73 | 1015.5 |
| 20260507211600 | 16 | 77 | 1.6 | 3.2 | 0.00 | 0.00 | 0.00 | 73 | 1010.9 |
| 20260507211502 | 16 | 81 | 1.6 | 3.2 | 0.00 | 0.00 | 0.00 | 74 | 1015.5 |
| 20260507211059 | 16 | 72 | 1.6 | 3.2 | 0.00 | 0.00 | 0.00 | 76 | 1010.9 |
| 20260507210559 | 17 | 25 | 0.0 | 0.0 | 0.00 | 0.00 | 0.00 | 77 | 1010.8 |
| 20260507210104 | 17 | 25 | 0.0 | 1.6 | 0.00 | 0.00 | 0.00 | 76 | 1010.8 |
| 20260507210005 | 17 | 24 | 0.0 | 1.6 | 0.00 | 0.00 | 0.00 | 76 | 1015.3 |
| 20260507210002 | 17 | 24 | 0.0 | 1.6 | 0.00 | 0.00 | 0.00 | 76 | 1010.8 |
| 20260507205600 | 17 | 25 | 0.0 | 3.2 | 0.00 | 0.00 | 0.00 | 76 | 1010.7 |
| 20260507205100 | 17 | 343 | 0.0 | 3.2 | 0.00 | 0.00 | 0.00 | 76 | 1010.7 |
| 20260507205001 | 17 | 340 | 0.0 | 3.2 | 0.00 | 0.00 | 0.00 | 76 | 1015.3 |
| 20260507204559 | 17 | 323 | 0.0 | 3.2 | 0.00 | 0.00 | 0.00 | 74 | 1010.6 |
| 20260507204500 | 17 | 13 | 0.0 | 3.2 | 0.00 | 0.00 | 0.00 | 74 | 1015.2 |
| 20260507204059 | 17 | 319 | 0.0 | 3.2 | 0.00 | 0.00 | 0.00 | 73 | 1010.6 |
| 20260507204001 | 17 | 352 | 0.0 | 3.2 | 0.00 | 0.00 | 0.00 | 72 | 1015.2 |
| 20260507203559 | 17 | 313 | 1.6 | 3.2 | 0.00 | 0.00 | 0.00 | 68 | 1010.6 |
| 20260507203502 | 17 | 312 | 1.6 | 3.2 | 0.00 | 0.00 | 0.00 | 67 | 1015.2 |
| 20260507203101 | 17 | 71 | 0.0 | 4.8 | 0.00 | 0.00 | 0.00 | 64 | 1010.6 |
| 20260507203002 | 17 | 72 | 1.6 | 4.8 | 0.00 | 0.00 | 0.00 | 63 | 1015.1 |
| 20260507202601 | 17 | 81 | 1.6 | 4.8 | 0.00 | 0.00 | 0.00 | 63 | 1010.5 |
| 20260507202500 | 17 | 77 | 1.6 | 4.8 | 0.00 | 0.00 | 0.00 | 63 | 1015.0 |
| 20260507202102 | 18 | 127 | 0.0 | 4.8 | 0.00 | 0.00 | 0.00 | 64 | 1010.4 |
| 20260507202002 | 18 | 105 | 1.6 | 4.8 | 0.00 | 0.00 | 0.00 | 64 | 1015.0 |
| 20260507201620 | 18 | 78 | 0.0 | 9.7 | 0.00 | 0.00 | 0.00 | 64 | 1010.4 |
| 20260507201100 | 18 | 131 | 1.6 | 9.7 | 0.00 | 0.00 | 0.00 | 63 | 1010.2 |
| 20260507201001 | 18 | 158 | 4.8 | 9.7 | 0.00 | 0.00 | 0.00 | 63 | 1014.7 |
| 20260507200600 | 18 | 117 | 3.2 | 9.7 | 0.00 | 0.00 | 0.00 | 63 | 1010.2 |
| 20260507200110 | 18 | 93 | 3.2 | 12.9 | 0.00 | 0.00 | 0.00 | 62 | 1010.1 |
| 20260507200006 | 18 | 91 | 6.4 | 12.9 | 0.00 | 0.00 | 0.00 | 62 | 1014.6 |
| 20260507200003 | 18 | 91 | 3.2 | 12.9 | 0.00 | 0.00 | 0.00 | 62 | 1010.1 |
| 20260507195559 | 18 | 123 | 6.4 | 12.9 | 0.00 | 0.00 | 0.00 | 62 | 1010.0 |
| 20260507195500 | 18 | 89 | 6.4 | 11.3 | 0.00 | 0.00 | 0.00 | 62 | 1014.5 |
| 20260507195100 | 18 | 103 | 6.4 | 12.9 | 0.00 | 0.00 | 0.00 | 63 | 1009.9 |
| 20260507195001 | 18 | 74 | 8.0 | 12.9 | 0.00 | 0.00 | 0.00 | 64 | 1014.5 |
| 20260507194600 | 18 | 117 | 8.0 | 12.9 | 0.00 | 0.00 | 0.00 | 64 | 1009.9 |
| 20260507194502 | 18 | 117 | 8.0 | 12.9 | 0.00 | 0.00 | 0.00 | 64 | 1014.4 |
| 20260507194059 | 18 | 76 | 6.4 | 11.3 | 0.00 | 0.00 | 0.00 | 64 | 1009.8 |
| 20260507194001 | 18 | 74 | 6.4 | 11.3 | 0.00 | 0.00 | 0.00 | 64 | 1014.2 |
| 20260507193601 | 18 | 65 | 6.4 | 11.3 | 0.00 | 0.00 | 0.00 | 65 | 1009.7 |
| 20260507193500 | 18 | 80 | 6.4 | 11.3 | 0.00 | 0.00 | 0.00 | 65 | 1014.2 |
| 20260507193100 | 18 | 120 | 6.4 | 11.3 | 0.00 | 0.00 | 0.00 | 65 | 1009.7 |
| 20260507193001 | 18 | 108 | 6.4 | 11.3 | 0.00 | 0.00 | 0.00 | 65 | 1014.2 |
| 20260507192606 | 18 | 113 | 4.8 | 8.0 | 0.00 | 0.00 | 0.00 | 65 | 1009.8 |
| 20260507192500 | 18 | 82 | 4.8 | 8.0 | 0.00 | 0.00 | 0.00 | 65 | 1014.2 |
| 20260507192059 | 18 | 90 | 3.2 | 8.0 | 0.00 | 0.00 | 0.00 | 65 | 1009.7 |
| 20260507192000 | 18 | 86 | 3.2 | 6.4 | 0.00 | 0.00 | 0.00 | 65 | 1014.2 |
| 20260507191600 | 19 | 89 | 3.2 | 8.0 | 0.00 | 0.00 | 0.00 | 65 | 1009.8 |
| 20260507191502 | 19 | 109 | 4.8 | 8.0 | 0.00 | 0.00 | 0.00 | 64 | 1014.3 |
| 20260507191100 | 19 | 83 | 3.2 | 8.0 | 0.00 | 0.00 | 0.00 | 64 | 1009.8 |
| 20260507191000 | 19 | 93 | 3.2 | 8.0 | 0.00 | 0.00 | 0.00 | 64 | 1014.3 |
| 20260507190559 | 19 | 89 | 3.2 | 6.4 | 0.00 | 0.00 | 0.00 | 64 | 1009.8 |
| 20260507190500 | 19 | 112 | 3.2 | 8.0 | 0.00 | 0.00 | 0.00 | 64 | 1014.3 |
| 20260507190006 | 19 | 72 | 4.8 | 8.0 | 0.00 | 0.00 | 0.00 | 64 | 1014.3 |
| 20260507190004 | 19 | 72 | 3.2 | 8.0 | 0.00 | 0.00 | 0.00 | 64 | 1009.8 |
| 20260507185502 | 19 | 93 | 4.8 | 9.7 | 0.00 | 0.00 | 0.00 | 64 | 1014.3 |
| 20260507185001 | 19 | 76 | 4.8 | 9.7 | 0.00 | 0.00 | 0.00 | 63 | 1009.8 |
| 20260507184502 | 19 | 99 | 4.8 | 9.7 | 0.00 | 0.00 | 0.00 | 62 | 1014.3 |
| 20260507184003 | 19 | 98 | 4.8 | 11.3 | 0.00 | 0.00 | 0.00 | 62 | 1014.3 |
| 20260507184001 | 19 | 98 | 3.2 | 11.3 | 0.00 | 0.00 | 0.00 | 62 | 1009.8 |
| 20260507183502 | 19 | 70 | 6.4 | 11.3 | 0.00 | 0.00 | 0.00 | 62 | 1014.3 |
| 20260507183500 | 19 | 70 | 6.4 | 11.3 | 0.00 | 0.00 | 0.00 | 62 | 1009.8 |
| 20260507183003 | 20 | 75 | 4.8 | 11.3 | 0.00 | 0.00 | 0.00 | 61 | 1014.3 |
| 20260507182504 | 20 | 84 | 4.8 | 8.0 | 0.00 | 0.00 | 0.00 | 62 | 1014.2 |
| 20260507182502 | 20 | 84 | 3.2 | 8.0 | 0.00 | 0.00 | 0.00 | 62 | 1009.7 |
| 20260507182002 | 20 | 139 | 4.8 | 8.0 | 0.00 | 0.00 | 0.00 | 61 | 1014.2 |
| 20260507182000 | 20 | 139 | 4.8 | 8.0 | 0.00 | 0.00 | 0.00 | 61 | 1009.7 |
| 20260507181502 | 20 | 62 | 4.8 | 9.7 | 0.00 | 0.00 | 0.00 | 61 | 1014.2 |
| 20260507181004 | 20 | 100 | 4.8 | 9.7 | 0.00 | 0.00 | 0.00 | 61 | 1009.7 |
| 20260507180500 | 20 | 61 | 1.6 | 8.0 | 0.00 | 0.00 | 0.00 | 60 | 1009.5 |
| 20260507180004 | 20 | 91 | 4.8 | 9.7 | 0.00 | 0.00 | 0.00 | 60 | 1014.1 |
| 20260507180001 | 20 | 91 | 3.2 | 9.7 | 0.00 | 0.00 | 0.00 | 60 | 1009.6 |
| 20260507175559 | 20 | 110 | 3.2 | 11.3 | 0.00 | 0.00 | 0.00 | 60 | 1009.4 |
| 20260507175101 | 20 | 86 | 3.2 | 12.9 | 0.00 | 0.00 | 0.00 | 60 | 1009.4 |
| 20260507175001 | 20 | 65 | 6.4 | 12.9 | 0.00 | 0.00 | 0.00 | 60 | 1014.0 |
| 20260507174603 | 20 | 85 | 4.8 | 12.9 | 0.00 | 0.00 | 0.00 | 59 | 1009.5 |
| 20260507174059 | 20 | 72 | 8.0 | 12.9 | 0.00 | 0.00 | 0.00 | 58 | 1009.4 |
| 20260507174001 | 20 | 86 | 6.4 | 16.1 | 0.00 | 0.00 | 0.00 | 58 | 1014.0 |
| 20260507173500 | 20 | 65 | 4.8 | 16.1 | 0.00 | 0.00 | 0.00 | 58 | 1009.4 |
| 20260507173005 | 20 | 82 | 6.4 | 12.9 | 0.00 | 0.00 | 0.00 | 57 | 1014.0 |
| 20260507173003 | 20 | 82 | 6.4 | 12.9 | 0.00 | 0.00 | 0.00 | 57 | 1009.4 |
| 20260507172502 | 20 | 48 | 3.2 | 12.9 | 0.00 | 0.00 | 0.00 | 57 | 1009.4 |
| 20260507172005 | 20 | 70 | 8.0 | 12.9 | 0.00 | 0.00 | 0.00 | 57 | 1013.9 |
| 20260507172001 | 20 | 70 | 4.8 | 12.9 | 0.00 | 0.00 | 0.00 | 57 | 1009.4 |
| 20260507171502 | 20 | 88 | 8.0 | 17.7 | 0.00 | 0.00 | 0.00 | 56 | 1013.9 |
| 20260507171001 | 20 | 63 | 6.4 | 22.5 | 0.00 | 0.00 | 0.00 | 55 | 1009.5 |
| 20260507170502 | 20 | 68 | 9.7 | 22.5 | 0.00 | 0.00 | 0.00 | 55 | 1009.6 |
| 20260507170002 | 20 | 110 | 8.0 | 17.7 | 0.00 | 0.00 | 0.00 | 54 | 1009.5 |
| 20260507165501 | 20 | 65 | 11.3 | 17.7 | 0.00 | 0.00 | 0.00 | 54 | 1009.6 |
| 20260507165003 | 21 | 68 | 6.4 | 19.3 | 0.00 | 0.00 | 0.00 | 53 | 1014.2 |
| 20260507165001 | 21 | 68 | 3.2 | 19.3 | 0.00 | 0.00 | 0.00 | 53 | 1009.7 |
| 20260507164502 | 21 | 60 | 8.0 | 19.3 | 0.00 | 0.00 | 0.00 | 52 | 1009.6 |
| 20260507164002 | 21 | 121 | 6.4 | 24.1 | 0.00 | 0.00 | 0.00 | 54 | 1014.1 |
| 20260507163501 | 21 | 76 | 8.0 | 19.3 | 0.00 | 0.00 | 0.00 | 54 | 1014.1 |
| 20260507163004 | 21 | 69 | 9.7 | 19.3 | 0.00 | 0.00 | 0.00 | 55 | 1014.0 |
| 20260507163000 | 21 | 69 | 8.0 | 19.3 | 0.00 | 0.00 | 0.00 | 55 | 1009.4 |
| 20260507162501 | 21 | 94 | 9.7 | 19.3 | 0.00 | 0.00 | 0.00 | 55 | 1013.9 |
| 20260507162028 | 21 | 58 | 11.3 | 24.1 | 0.00 | 0.00 | 0.00 | 56 | 1013.9 |
| 20260507162002 | 21 | 79 | 9.7 | 24.1 | 0.00 | 0.00 | 0.00 | 56 | 1009.3 |
| 20260507161504 | 21 | 62 | 14.5 | 27.4 | 0.00 | 0.00 | 0.00 | 57 | 1013.9 |
| 20260507161502 | 21 | 62 | 11.3 | 27.4 | 0.00 | 0.00 | 0.00 | 57 | 1009.4 |
| 20260507161002 | 21 | 65 | 14.5 | 27.4 | 0.00 | 0.00 | 0.00 | 58 | 1013.9 |
| 20260507160503 | 21 | 93 | 12.9 | 22.5 | 0.00 | 0.00 | 0.00 | 58 | 1014.0 |
| 20260507160501 | 21 | 93 | 12.9 | 22.5 | 0.00 | 0.00 | 0.00 | 58 | 1009.5 |
| 20260507160008 | 20 | 72 | 12.9 | 24.1 | 0.00 | 0.00 | 0.00 | 58 | 1014.0 |
| 20260507160005 | 20 | 72 | 12.9 | 24.1 | 0.00 | 0.00 | 0.00 | 58 | 1009.4 |
| 20260507155501 | 20 | 79 | 12.9 | 24.1 | 0.00 | 0.00 | 0.00 | 59 | 1014.0 |
| 20260507155001 | 20 | 92 | 12.9 | 27.4 | 0.00 | 0.00 | 0.00 | 58 | 1009.5 |
| 20260507154502 | 20 | 76 | 11.3 | 22.5 | 0.00 | 0.00 | 0.00 | 58 | 1009.6 |
| 20260507154001 | 20 | 70 | 9.7 | 22.5 | 0.00 | 0.00 | 0.00 | 57 | 1009.7 |
| 20260507153504 | 20 | 83 | 9.7 | 19.3 | 0.00 | 0.00 | 0.00 | 64 | 1009.8 |
| 20260507153002 | 20 | 68 | 6.4 | 14.5 | 0.00 | 0.00 | 0.00 | 64 | 1014.3 |
| 20260507152504 | 19 | 70 | 9.7 | 25.7 | 0.00 | 0.00 | 0.00 | 65 | 1014.4 |
| 20260507152501 | 19 | 338 | 4.8 | 25.7 | 0.00 | 0.00 | 0.00 | 65 | 1009.9 |
| 20260507152001 | 19 | 71 | 9.7 | 25.7 | 0.00 | 0.00 | 0.00 | 66 | 1010.0 |
| 20260507151502 | 19 | 70 | 14.5 | 25.7 | 0.00 | 0.00 | 0.00 | 64 | 1010.0 |
| 20260507151002 | 20 | 85 | 11.3 | 25.7 | 0.00 | 0.00 | 0.00 | 62 | 1014.3 |
| 20260507150504 | 20 | 86 | 11.3 | 25.7 | 0.00 | 0.00 | 0.00 | 63 | 1014.3 |
| 20260507150502 | 20 | 86 | 11.3 | 25.7 | 0.00 | 0.00 | 0.00 | 63 | 1009.8 |
| 20260507150003 | 20 | 126 | 11.3 | 24.1 | 0.00 | 0.00 | 0.00 | 62 | 1009.8 |
| 20260507145502 | 20 | 91 | 8.0 | 19.3 | 0.00 | 0.00 | 0.00 | 62 | 1009.8 |
| 20260507145002 | 20 | 60 | 6.4 | 19.3 | 0.00 | 0.00 | 0.00 | 62 | 1014.4 |
| 20260507145000 | 20 | 60 | 6.4 | 19.3 | 0.00 | 0.00 | 0.00 | 62 | 1009.9 |
| 20260507144502 | 20 | 13 | 6.4 | 17.7 | 0.00 | 0.00 | 0.00 | 60 | 1014.5 |
| 20260507144100 | 21 | 75 | 3.2 | 17.7 | 0.00 | 0.00 | 0.00 | 60 | 1010.1 |
| 20260507144003 | 21 | 22 | 4.8 | 17.7 | 0.00 | 0.00 | 0.00 | 61 | 1014.6 |
| 20260507144001 | 21 | 22 | 4.8 | 17.7 | 0.00 | 0.00 | 0.00 | 61 | 1010.1 |
| 20260507143504 | 21 | 96 | 6.4 | 19.3 | 0.00 | 0.00 | 0.00 | 57 | 1014.6 |
| 20260507143500 | 21 | 96 | 3.2 | 19.3 | 0.00 | 0.00 | 0.00 | 57 | 1010.1 |
| 20260507143003 | 20 | 305 | 8.0 | 22.5 | 0.00 | 0.00 | 0.00 | 59 | 1010.1 |
| 20260507142502 | 20 | 102 | 8.0 | 41.8 | 0.00 | 0.00 | 0.00 | 59 | 1010.2 |
| 20260507142003 | 20 | 153 | 9.7 | 41.8 | 0.00 | 0.00 | 0.00 | 58 | 1014.7 |
| 20260507142001 | 20 | 153 | 11.3 | 41.8 | 0.00 | 0.00 | 0.00 | 58 | 1010.2 |
| 20260507141501 | 20 | 240 | 8.0 | 19.3 | 0.00 | 0.00 | 0.00 | 57 | 1010.2 |
| 20260507141003 | 20 | 17 | 8.0 | 19.3 | 0.00 | 0.00 | 0.00 | 57 | 1010.3 |
| 20260507140501 | 20 | 335 | 6.4 | 20.9 | 0.00 | 0.00 | 0.00 | 59 | 1014.8 |
| 20260507140006 | 20 | 72 | 6.4 | 25.7 | 0.00 | 0.00 | 0.00 | 60 | 1015.0 |
| 20260507140002 | 20 | 72 | 1.6 | 25.7 | 0.00 | 0.00 | 0.00 | 60 | 1010.5 |
| 20260507135502 | 20 | 72 | 9.7 | 25.7 | 0.00 | 0.00 | 0.00 | 61 | 1010.6 |
| 20260507135003 | 20 | 356 | 6.4 | 22.5 | 0.00 | 0.00 | 0.00 | 60 | 1015.0 |
| 20260507135001 | 20 | 356 | 6.4 | 22.5 | 0.00 | 0.00 | 0.00 | 60 | 1010.5 |
| 20260507134504 | 19 | 62 | 8.0 | 22.5 | 0.00 | 0.00 | 0.00 | 62 | 1015.1 |
| 20260507134502 | 19 | 62 | 3.2 | 22.5 | 0.00 | 0.00 | 0.00 | 62 | 1010.6 |
| 20260507134000 | 19 | 71 | 6.4 | 32.2 | 0.00 | 0.00 | 0.00 | 60 | 1010.6 |
| 20260507133501 | 19 | 58 | 8.0 | 20.9 | 0.00 | 0.00 | 0.00 | 60 | 1015.2 |
| 20260507133004 | 19 | 73 | 6.4 | 33.8 | 0.00 | 0.00 | 0.00 | 60 | 1015.2 |
| 20260507133001 | 19 | 73 | 6.4 | 33.8 | 0.00 | 0.00 | 0.00 | 60 | 1010.7 |
| 20260507132501 | 20 | 70 | 6.4 | 33.8 | 0.00 | 0.00 | 0.00 | 59 | 1015.3 |
| 20260507132100 | 20 | 77 | 4.8 | 24.1 | 0.00 | 0.00 | 0.00 | 60 | 1010.8 |
| 20260507131600 | 19 | 94 | 6.4 | 24.1 | 0.00 | 0.00 | 0.00 | 60 | 1010.8 |
| 20260507131501 | 19 | 68 | 6.4 | 24.1 | 0.00 | 0.00 | 0.00 | 60 | 1015.4 |
| 20260507131002 | 20 | 66 | 6.4 | 20.9 | 0.00 | 0.00 | 0.00 | 58 | 1015.5 |
| 20260507130501 | 19 | 344 | 4.8 | 22.5 | 0.00 | 0.00 | 0.00 | 60 | 1011.0 |
| 20260507130005 | 19 | 318 | 8.0 | 27.4 | 0.00 | 0.00 | 0.00 | 60 | 1015.6 |
| 20260507130003 | 19 | 318 | 1.6 | 27.4 | 0.00 | 0.00 | 0.00 | 60 | 1011.1 |
| 20260507125502 | 19 | 74 | 8.0 | 27.4 | 0.00 | 0.00 | 0.00 | 59 | 1015.6 |
| 20260507125059 | 19 | 304 | 6.4 | 27.4 | 0.00 | 0.00 | 0.00 | 59 | 1011.3 |
| 20260507125002 | 19 | 226 | 8.0 | 27.4 | 0.00 | 0.00 | 0.00 | 61 | 1015.8 |
| 20260507124620 | 19 | 20 | 11.3 | 27.4 | 0.00 | 0.00 | 0.00 | 60 | 1011.2 |
| 20260507124502 | 19 | 65 | 8.0 | 27.4 | 0.00 | 0.00 | 0.00 | 60 | 1015.8 |
| 20260507124100 | 19 | 87 | 9.7 | 20.9 | 0.00 | 0.00 | 0.00 | 60 | 1011.2 |
| 20260507124002 | 19 | 80 | 8.0 | 20.9 | 0.00 | 0.00 | 0.00 | 60 | 1015.8 |
| 20260507123601 | 19 | 349 | 4.8 | 17.7 | 0.00 | 0.00 | 0.00 | 60 | 1011.3 |
| 20260507123501 | 19 | 69 | 6.4 | 17.7 | 0.00 | 0.00 | 0.00 | 61 | 1015.9 |
| 20260507123110 | 19 | 273 | 4.8 | 19.3 | 0.00 | 0.00 | 0.00 | 61 | 1011.3 |
| 20260507123001 | 19 | 48 | 6.4 | 19.3 | 0.00 | 0.00 | 0.00 | 61 | 1015.9 |
| 20260507122600 | 19 | 18 | 6.4 | 19.3 | 0.00 | 0.00 | 0.00 | 61 | 1011.4 |
| 20260507122503 | 19 | 340 | 8.0 | 19.3 | 0.00 | 0.00 | 0.00 | 61 | 1016.0 |
| 20260507122004 | 18 | 359 | 6.4 | 16.1 | 0.00 | 0.00 | 0.00 | 62 | 1016.1 |
| 20260507122000 | 18 | 359 | 8.0 | 16.1 | 0.00 | 0.00 | 0.00 | 62 | 1011.6 |
| 20260507121604 | 18 | 14 | 4.8 | 27.4 | 0.00 | 0.00 | 0.00 | 63 | 1011.5 |
| 20260507121502 | 18 | 324 | 6.4 | 27.4 | 0.00 | 0.00 | 0.00 | 64 | 1016.0 |
| 20260507121059 | 18 | 57 | 9.7 | 27.4 | 0.00 | 0.00 | 0.00 | 63 | 1011.7 |
| 20260507120600 | 18 | 68 | 6.4 | 24.1 | 0.00 | 0.00 | 0.00 | 63 | 1011.7 |
| 20260507120502 | 18 | 41 | 8.0 | 24.1 | 0.00 | 0.00 | 0.00 | 63 | 1011.7 |
| 20260507120007 | 18 | 108 | 8.0 | 24.1 | 0.00 | 0.00 | 0.00 | 65 | 1016.3 |
| 20260507120005 | 18 | 108 | 8.0 | 24.1 | 0.00 | 0.00 | 0.00 | 65 | 1011.8 |
| 20260507115600 | 18 | 44 | 4.8 | 25.7 | 0.00 | 0.05 | 0.00 | 67 | 1011.8 |
| 20260507115503 | 18 | 326 | 9.7 | 25.7 | 0.00 | 0.05 | 0.00 | 66 | 1016.3 |
| 20260507115101 | 18 | 92 | 6.4 | 25.7 | 0.00 | 0.05 | 0.00 | 66 | 1011.9 |
| 20260507115005 | 18 | 42 | 9.7 | 25.7 | 0.00 | 0.05 | 0.00 | 66 | 1016.4 |
| 20260507115000 | 18 | 42 | 8.0 | 25.7 | 0.00 | 0.05 | 0.00 | 66 | 1011.9 |
| 20260507114604 | 18 | 226 | 8.0 | 17.7 | 0.00 | 0.05 | 0.00 | 65 | 1011.9 |
| 20260507114501 | 18 | 81 | 8.0 | 17.7 | 0.00 | 0.05 | 0.00 | 65 | 1016.5 |
| 20260507114101 | 18 | 319 | 6.4 | 17.7 | 0.00 | 0.05 | 0.00 | 64 | 1011.9 |
| 20260507114002 | 18 | 69 | 8.0 | 25.7 | 0.00 | 0.05 | 0.00 | 65 | 1016.4 |
| 20260507113601 | 18 | 345 | 4.8 | 25.7 | 0.00 | 0.05 | 0.00 | 66 | 1011.9 |
| 20260507113502 | 18 | 357 | 6.4 | 25.7 | 0.00 | 0.05 | 0.00 | 66 | 1016.4 |
| 20260507113100 | 18 | 24 | 4.8 | 17.7 | 0.00 | 0.05 | 0.00 | 65 | 1011.9 |
| 20260507112600 | 18 | 70 | 4.8 | 17.7 | 0.00 | 0.05 | 0.00 | 66 | 1012.0 |
| 20260507112500 | 18 | 53 | 8.0 | 17.7 | 0.00 | 0.05 | 0.00 | 66 | 1016.4 |
| 20260507112104 | 18 | 30 | 6.4 | 20.9 | 0.00 | 0.05 | 0.00 | 65 | 1012.1 |
| 20260507112001 | 18 | 340 | 6.4 | 20.9 | 0.00 | 0.05 | 0.00 | 65 | 1016.5 |
| 20260507111600 | 18 | 77 | 8.0 | 22.5 | 0.00 | 0.05 | 0.00 | 65 | 1012.1 |
| 20260507111502 | 18 | 27 | 6.4 | 22.5 | 0.00 | 0.05 | 0.00 | 64 | 1016.6 |
| 20260507111102 | 18 | 66 | 8.0 | 22.5 | 0.00 | 0.05 | 0.00 | 64 | 1012.1 |
| 20260507111003 | 18 | 293 | 6.4 | 22.5 | 0.00 | 0.05 | 0.00 | 64 | 1016.7 |
| 20260507110600 | 18 | 345 | 3.2 | 16.1 | 0.00 | 0.05 | 0.00 | 65 | 1012.1 |
| 20260507110501 | 18 | 214 | 4.8 | 16.1 | 0.00 | 0.05 | 0.00 | 66 | 1016.6 |
| 20260507110100 | 18 | 44 | 4.8 | 20.9 | 0.00 | 0.05 | 0.00 | 66 | 1012.3 |
| 20260507110004 | 18 | 65 | 4.8 | 20.9 | 0.00 | 0.05 | 0.00 | 66 | 1016.8 |
| 20260507105600 | 18 | 354 | 4.8 | 20.9 | 0.00 | 0.05 | 0.00 | 66 | 1012.3 |
| 20260507105502 | 18 | 60 | 4.8 | 20.9 | 0.00 | 0.05 | 0.00 | 66 | 1016.8 |
| 20260507105100 | 18 | 76 | 4.8 | 14.5 | 0.00 | 0.05 | 0.00 | 66 | 1012.4 |
| 20260507105002 | 18 | 60 | 4.8 | 14.5 | 0.00 | 0.05 | 0.00 | 66 | 1016.9 |
| 20260507104600 | 17 | 37 | 1.6 | 19.3 | 0.00 | 0.05 | 0.00 | 68 | 1012.4 |
| 20260507104500 | 17 | 2 | 3.2 | 19.3 | 0.00 | 0.05 | 0.00 | 68 | 1016.9 |
| 20260507104102 | 17 | 358 | 4.8 | 19.3 | 0.00 | 0.05 | 0.00 | 67 | 1012.5 |
| 20260507104001 | 17 | 65 | 3.2 | 19.3 | 0.00 | 0.05 | 0.00 | 67 | 1017.1 |
| 20260507103600 | 17 | 20 | 3.2 | 14.5 | 0.00 | 0.05 | 0.00 | 69 | 1012.6 |
| 20260507103114 | 17 | 15 | 3.2 | 14.5 | 0.00 | 0.05 | 0.00 | 69 | 1012.7 |
| 20260507103003 | 17 | 71 | 3.2 | 14.5 | 0.00 | 0.05 | 0.00 | 69 | 1017.2 |
| 20260507102600 | 17 | 318 | 3.2 | 8.0 | 0.00 | 0.05 | 0.00 | 70 | 1012.8 |
| 20260507102501 | 17 | 284 | 3.2 | 8.0 | 0.00 | 0.05 | 0.00 | 71 | 1017.3 |
| 20260507102101 | 17 | 339 | 1.6 | 8.0 | 0.00 | 0.05 | 0.00 | 70 | 1012.8 |
| 20260507102001 | 16 | 323 | 3.2 | 8.0 | 0.00 | 0.05 | 0.00 | 71 | 1017.4 |
| 20260507101603 | 16 | 4 | 3.2 | 8.0 | 0.00 | 0.05 | 0.00 | 71 | 1012.9 |
| 20260507101502 | 16 | 326 | 4.8 | 8.0 | 0.00 | 0.05 | 0.00 | 71 | 1017.4 |
| 20260507101100 | 16 | 355 | 3.2 | 8.0 | 0.00 | 0.05 | 0.00 | 72 | 1013.0 |
| 20260507101001 | 16 | 349 | 4.8 | 8.0 | 0.00 | 0.05 | 0.00 | 71 | 1017.4 |
| 20260507100600 | 16 | 325 | 3.2 | 8.0 | 0.00 | 0.05 | 0.00 | 72 | 1013.0 |
| 20260507100500 | 16 | 350 | 4.8 | 8.0 | 0.00 | 0.05 | 0.00 | 72 | 1017.5 |
| 20260507100113 | 16 | 309 | 3.2 | 8.0 | 0.00 | 0.05 | 0.00 | 72 | 1013.0 |
| 20260507100006 | 16 | 319 | 3.2 | 8.0 | 0.00 | 0.05 | 0.00 | 72 | 1017.5 |
| 20260507100002 | 16 | 319 | 3.2 | 8.0 | 0.00 | 0.05 | 0.00 | 72 | 1013.0 |
| 20260507095603 | 16 | 326 | 3.2 | 6.4 | 0.00 | 0.08 | 0.00 | 73 | 1013.0 |
| 20260507095502 | 16 | 345 | 3.2 | 8.0 | 0.00 | 0.08 | 0.00 | 73 | 1017.6 |
| 20260507095101 | 15 | 356 | 1.6 | 8.0 | 0.00 | 0.08 | 0.00 | 74 | 1013.1 |
| 20260507095002 | 15 | 13 | 3.2 | 8.0 | 0.00 | 0.08 | 0.00 | 73 | 1017.7 |
| 20260507094600 | 15 | 285 | 3.2 | 6.4 | 0.00 | 0.08 | 0.00 | 73 | 1013.2 |
| 20260507094502 | 15 | 341 | 3.2 | 6.4 | 0.00 | 0.08 | 0.00 | 73 | 1017.8 |
| 20260507094100 | 15 | 344 | 1.6 | 4.8 | 0.00 | 0.08 | 0.00 | 73 | 1013.3 |
| 20260507094001 | 15 | 291 | 1.6 | 6.4 | 0.00 | 0.08 | 0.00 | 73 | 1013.3 |
| 20260507093603 | 15 | 345 | 0.0 | 6.4 | 0.00 | 0.08 | 0.00 | 75 | 1013.4 |
| 20260507093502 | 15 | 314 | 0.0 | 6.4 | 0.00 | 0.08 | 0.00 | 75 | 1013.4 |
| 20260507093102 | 15 | 333 | 1.6 | 6.4 | 0.00 | 0.08 | 0.00 | 75 | 1013.4 |
| 20260507093001 | 15 | 332 | 1.6 | 4.8 | 0.00 | 0.08 | 0.00 | 75 | 1018.0 |
| 20260507092600 | 15 | 274 | 0.0 | 8.0 | 0.00 | 0.08 | 0.00 | 74 | 1013.5 |
| 20260507092100 | 15 | 285 | 1.6 | 8.0 | 0.00 | 0.08 | 0.00 | 75 | 1013.5 |
| 20260507092003 | 15 | 323 | 3.2 | 6.4 | 0.00 | 0.08 | 0.00 | 75 | 1018.0 |
| 20260507091600 | 15 | 281 | 1.6 | 6.4 | 0.00 | 0.08 | 0.00 | 75 | 1013.5 |
| 20260507091501 | 15 | 341 | 3.2 | 4.8 | 0.00 | 0.08 | 0.00 | 75 | 1018.1 |
| 20260507091101 | 15 | 357 | 1.6 | 4.8 | 0.00 | 0.08 | 0.00 | 75 | 1013.6 |
| 20260507090559 | 14 | 350 | 1.6 | 6.4 | 0.00 | 0.08 | 0.00 | 75 | 1013.5 |
| 20260507090501 | 14 | 331 | 3.2 | 6.4 | 0.00 | 0.08 | 0.00 | 75 | 1018.1 |
| 20260507090100 | 14 | 319 | 1.6 | 6.4 | 0.00 | 0.08 | 0.00 | 75 | 1013.5 |
| 20260507090006 | 14 | 8 | 3.2 | 6.4 | 0.00 | 0.08 | 0.00 | 75 | 1018.0 |
| 20260507090002 | 14 | 8 | 1.6 | 6.4 | 0.00 | 0.08 | 0.00 | 75 | 1013.5 |
| 20260507085600 | 14 | 337 | 1.6 | 8.0 | 0.00 | 0.25 | 0.00 | 74 | 1013.5 |
| 20260507085100 | 15 | 309 | 3.2 | 8.0 | 0.00 | 0.25 | 0.00 | 73 | 1013.5 |
| 20260507085001 | 15 | 288 | 1.6 | 8.0 | 0.00 | 0.25 | 0.00 | 72 | 1018.0 |
| 20260507084602 | 15 | 347 | 1.6 | 4.8 | 0.00 | 0.25 | 0.00 | 73 | 1013.5 |
| 20260507084501 | 15 | 4 | 1.6 | 4.8 | 0.00 | 0.25 | 0.00 | 72 | 1018.0 |
| 20260507084100 | 15 | 339 | 0.0 | 3.2 | 0.00 | 0.25 | 0.00 | 72 | 1013.5 |
| 20260507084001 | 15 | 274 | 1.6 | 3.2 | 0.00 | 0.25 | 0.00 | 73 | 1018.1 |
| 20260507083600 | 15 | 15 | 0.0 | 4.8 | 0.00 | 0.25 | 0.00 | 74 | 1013.6 |
| 20260507083502 | 14 | 275 | 1.6 | 4.8 | 0.00 | 0.25 | 0.00 | 74 | 1018.1 |
| 20260507083120 | 14 | 294 | 3.2 | 4.8 | 0.00 | 0.25 | 0.00 | 73 | 1013.6 |
| 20260507083001 | 14 | 300 | 1.6 | 4.8 | 0.00 | 0.25 | 0.00 | 73 | 1018.1 |
| 20260507082600 | 14 | 229 | 0.0 | 4.8 | 0.00 | 0.25 | 0.00 | 74 | 1013.6 |
| 20260507082059 | 13 | 337 | 0.0 | 4.8 | 0.00 | 0.25 | 0.00 | 73 | 1013.7 |
| 20260507082002 | 14 | 222 | 1.6 | 6.4 | 0.00 | 0.25 | 0.00 | 73 | 1018.2 |
| 20260507081605 | 14 | 89 | 0.0 | 8.0 | 0.00 | 0.25 | 0.00 | 73 | 1013.7 |
| 20260507081100 | 13 | 63 | 3.2 | 8.0 | 0.00 | 0.25 | 0.00 | 74 | 1013.7 |
| 20260507081001 | 13 | 61 | 1.6 | 8.0 | 0.00 | 0.25 | 0.00 | 73 | 1018.2 |
| 20260507080600 | 13 | 121 | 0.0 | 6.4 | 0.00 | 0.25 | 0.00 | 75 | 1013.8 |
| 20260507080100 | 13 | 63 | 1.6 | 8.0 | 0.00 | 0.25 | 0.00 | 75 | 1013.8 |
| 20260507080005 | 13 | 85 | 3.2 | 8.0 | 0.00 | 0.25 | 0.00 | 75 | 1018.3 |
| 20260507080002 | 13 | 85 | 1.6 | 8.0 | 0.00 | 0.25 | 0.00 | 75 | 1013.8 |
| 20260507075602 | 13 | 99 | 3.2 | 8.0 | 0.00 | 0.30 | 0.00 | 74 | 1013.8 |
| 20260507075100 | 13 | 68 | 1.6 | 6.4 | 0.00 | 0.30 | 0.00 | 77 | 1013.8 |
| 20260507075001 | 13 | 54 | 1.6 | 6.4 | 0.00 | 0.30 | 0.00 | 77 | 1018.4 |
| 20260507074621 | 13 | 140 | 1.6 | 6.4 | 0.00 | 0.30 | 0.00 | 78 | 1013.9 |
| 20260507074502 | 12 | 78 | 3.2 | 6.4 | 0.00 | 0.30 | 0.00 | 78 | 1018.4 |
| 20260507074059 | 12 | 56 | 1.6 | 6.4 | 0.00 | 0.30 | 0.00 | 78 | 1013.9 |
| 20260507074001 | 12 | 60 | 3.2 | 6.4 | 0.00 | 0.30 | 0.00 | 77 | 1018.4 |
| 20260507073600 | 12 | 132 | 3.2 | 6.4 | 0.00 | 0.30 | 0.00 | 78 | 1013.9 |
| 20260507073501 | 12 | 108 | 3.2 | 6.4 | 0.00 | 0.30 | 0.00 | 78 | 1018.4 |
| 20260507073104 | 12 | 91 | 1.6 | 6.4 | 0.00 | 0.30 | 0.00 | 79 | 1014.0 |
| 20260507072600 | 12 | 82 | 1.6 | 8.0 | 0.00 | 0.30 | 0.00 | 80 | 1014.0 |
| 20260507072501 | 12 | 94 | 3.2 | 8.0 | 0.00 | 0.30 | 0.00 | 80 | 1018.5 |
| 20260507072100 | 12 | 63 | 3.2 | 8.0 | 0.00 | 0.30 | 0.00 | 81 | 1014.0 |
| 20260507071600 | 11 | 79 | 3.2 | 8.0 | 0.00 | 0.30 | 0.00 | 81 | 1014.0 |
| 20260507071501 | 11 | 68 | 4.8 | 8.0 | 0.00 | 0.30 | 0.00 | 81 | 1018.5 |
| 20260507071101 | 11 | 80 | 3.2 | 8.0 | 0.00 | 0.30 | 0.00 | 82 | 1014.0 |
| 20260507071001 | 11 | 82 | 4.8 | 8.0 | 0.00 | 0.30 | 0.00 | 81 | 1018.6 |
| 20260507070601 | 11 | 83 | 3.2 | 9.7 | 0.00 | 0.30 | 0.00 | 82 | 1014.1 |
| 20260507070501 | 11 | 60 | 4.8 | 9.7 | 0.00 | 0.30 | 0.00 | 83 | 1018.7 |
| 20260507070106 | 11 | 74 | 4.8 | 9.7 | 0.00 | 0.30 | 0.00 | 83 | 1014.2 |
| 20260507070009 | 11 | 93 | 6.4 | 9.7 | 0.00 | 0.30 | 0.00 | 83 | 1018.7 |
| 20260507070004 | 11 | 93 | 4.8 | 9.7 | 0.00 | 0.30 | 0.00 | 83 | 1014.2 |
| 20260507065559 | 11 | 75 | 4.8 | 9.7 | 0.00 | 0.30 | 0.00 | 83 | 1014.1 |
| 20260507065100 | 11 | 89 | 4.8 | 9.7 | 0.00 | 0.30 | 0.00 | 84 | 1014.1 |
| 20260507064603 | 10 | 120 | 4.8 | 9.7 | 0.00 | 0.30 | 0.00 | 84 | 1014.1 |
| 20260507064500 | 10 | 94 | 4.8 | 9.7 | 0.00 | 0.30 | 0.00 | 84 | 1018.7 |
| 20260507064101 | 10 | 51 | 3.2 | 11.3 | 0.00 | 0.30 | 0.00 | 85 | 1014.2 |
| 20260507063600 | 10 | 81 | 6.4 | 11.3 | 0.00 | 0.30 | 0.00 | 85 | 1014.2 |
| 20260507063500 | 10 | 129 | 6.4 | 11.3 | 0.00 | 0.30 | 0.00 | 85 | 1018.7 |
| 20260507063100 | 10 | 113 | 6.4 | 11.3 | 0.00 | 0.30 | 0.00 | 85 | 1014.2 |
| 20260507063002 | 10 | 73 | 6.4 | 11.3 | 0.00 | 0.30 | 0.00 | 85 | 1018.8 |
| 20260507062559 | 10 | 77 | 6.4 | 12.9 | 0.00 | 0.30 | 0.00 | 86 | 1014.2 |
| 20260507062500 | 10 | 88 | 6.4 | 12.9 | 0.00 | 0.30 | 0.00 | 86 | 1018.7 |
| 20260507062100 | 10 | 105 | 4.8 | 12.9 | 0.00 | 0.30 | 0.00 | 87 | 1014.2 |
| 20260507062001 | 10 | 65 | 6.4 | 12.9 | 0.00 | 0.30 | 0.00 | 87 | 1018.7 |
| 20260507061600 | 9 | 68 | 3.2 | 11.3 | 0.00 | 0.30 | 0.00 | 87 | 1014.2 |
| 20260507061502 | 9 | 94 | 4.8 | 11.3 | 0.00 | 0.30 | 0.00 | 87 | 1018.8 |
| 20260507061101 | 9 | 64 | 4.8 | 9.7 | 0.00 | 0.30 | 0.00 | 87 | 1014.3 |
| 20260507061001 | 9 | 79 | 4.8 | 9.7 | 0.00 | 0.30 | 0.00 | 88 | 1018.9 |
| 20260507060600 | 9 | 65 | 4.8 | 9.7 | 0.00 | 0.30 | 0.00 | 88 | 1014.4 |
| 20260507060007 | 8 | 65 | 4.8 | 11.3 | 0.00 | 0.30 | 0.00 | 89 | 1018.9 |
| 20260507055559 | 8 | 115 | 3.2 | 11.3 | 0.00 | 0.48 | 0.00 | 89 | 1014.3 |
| 20260507055500 | 8 | 359 | 4.8 | 11.3 | 0.00 | 0.48 | 0.00 | 89 | 1018.9 |
| 20260507055059 | 8 | 75 | 3.2 | 8.0 | 0.00 | 0.48 | 0.00 | 90 | 1014.3 |
| 20260507055001 | 8 | 108 | 4.8 | 8.0 | 0.00 | 0.48 | 0.00 | 90 | 1018.9 |
| 20260507054559 | 8 | 72 | 3.2 | 9.7 | 0.00 | 0.48 | 0.00 | 89 | 1014.3 |
| 20260507054501 | 8 | 61 | 4.8 | 11.3 | 0.00 | 0.48 | 0.00 | 89 | 1018.9 |
| 20260507054059 | 8 | 114 | 4.8 | 11.3 | 0.00 | 0.48 | 0.00 | 89 | 1014.4 |
| 20260507054002 | 8 | 86 | 6.4 | 11.3 | 0.00 | 0.48 | 0.00 | 89 | 1018.9 |
| 20260507053600 | 8 | 117 | 3.2 | 11.3 | 0.00 | 0.48 | 0.00 | 90 | 1014.3 |
| 20260507053501 | 8 | 63 | 6.4 | 11.3 | 0.00 | 0.48 | 0.00 | 89 | 1018.9 |
| 20260507053100 | 8 | 82 | 4.8 | 11.3 | 0.00 | 0.48 | 0.00 | 89 | 1014.2 |
| 20260507053003 | 8 | 77 | 6.4 | 11.3 | 0.00 | 0.48 | 0.00 | 89 | 1018.8 |
| 20260507052601 | 8 | 65 | 4.8 | 9.7 | 0.00 | 0.48 | 0.00 | 89 | 1014.3 |
| 20260507052501 | 8 | 70 | 4.8 | 11.3 | 0.00 | 0.48 | 0.00 | 89 | 1018.8 |
| 20260507052100 | 8 | 78 | 4.8 | 11.3 | 0.00 | 0.48 | 0.00 | 89 | 1014.3 |
| 20260507052001 | 8 | 71 | 4.8 | 11.3 | 0.00 | 0.48 | 0.00 | 89 | 1018.8 |
| 20260507051602 | 8 | 117 | 4.8 | 11.3 | 0.00 | 0.48 | 0.00 | 89 | 1014.3 |
| 20260507051501 | 8 | 95 | 4.8 | 11.3 | 0.00 | 0.48 | 0.00 | 89 | 1018.8 |
| 20260507051103 | 8 | 66 | 4.8 | 8.0 | 0.00 | 0.48 | 0.00 | 89 | 1014.4 |
| 20260507051003 | 8 | 105 | 4.8 | 8.0 | 0.00 | 0.48 | 0.00 | 89 | 1018.9 |
| 20260507050603 | 8 | 113 | 3.2 | 8.0 | 0.00 | 0.48 | 0.00 | 89 | 1014.3 |
| 20260507050501 | 8 | 108 | 3.2 | 8.0 | 0.00 | 0.48 | 0.00 | 89 | 1018.9 |
| 20260507050100 | 8 | 96 | 1.6 | 8.0 | 0.00 | 0.48 | 0.00 | 89 | 1014.3 |
| 20260507050006 | 8 | 111 | 3.2 | 8.0 | 0.00 | 0.48 | 0.00 | 89 | 1018.8 |
| 20260507050002 | 8 | 111 | 3.2 | 8.0 | 0.00 | 0.48 | 0.00 | 89 | 1014.3 |
| 20260507045606 | 8 | 82 | 3.2 | 8.0 | 0.00 | 0.53 | 0.00 | 89 | 1014.2 |
| 20260507045500 | 8 | 119 | 4.8 | 8.0 | 0.00 | 0.53 | 0.00 | 89 | 1018.8 |
| 20260507045059 | 8 | 34 | 1.6 | 9.7 | 0.00 | 0.53 | 0.00 | 90 | 1014.2 |
| 20260507045002 | 8 | 86 | 4.8 | 9.7 | 0.00 | 0.53 | 0.00 | 89 | 1018.7 |
| 20260507044602 | 8 | 109 | 3.2 | 9.7 | 0.00 | 0.53 | 0.00 | 89 | 1014.1 |
| 20260507044500 | 8 | 99 | 4.8 | 9.7 | 0.00 | 0.53 | 0.00 | 89 | 1018.7 |
| 20260507044104 | 8 | 72 | 3.2 | 11.3 | 0.00 | 0.53 | 0.00 | 90 | 1014.1 |
| 20260507044001 | 8 | 110 | 4.8 | 11.3 | 0.00 | 0.53 | 0.00 | 90 | 1018.7 |
| 20260507043559 | 8 | 84 | 4.8 | 11.3 | 0.00 | 0.53 | 0.00 | 89 | 1014.1 |
| 20260507043501 | 8 | 73 | 4.8 | 11.3 | 0.00 | 0.53 | 0.00 | 89 | 1018.6 |
| 20260507043103 | 8 | 94 | 3.2 | 9.7 | 0.00 | 0.53 | 0.00 | 90 | 1014.2 |
| 20260507043002 | 8 | 94 | 4.8 | 9.7 | 0.00 | 0.53 | 0.00 | 90 | 1018.7 |
| 20260507042600 | 8 | 91 | 3.2 | 11.3 | 0.00 | 0.53 | 0.00 | 90 | 1014.2 |
| 20260507042500 | 8 | 93 | 4.8 | 11.3 | 0.00 | 0.53 | 0.00 | 90 | 1018.7 |
| 20260507042059 | 8 | 96 | 4.8 | 11.3 | 0.00 | 0.53 | 0.00 | 90 | 1014.2 |
| 20260507042002 | 8 | 94 | 4.8 | 11.3 | 0.00 | 0.53 | 0.00 | 89 | 1018.7 |
| 20260507041601 | 8 | 69 | 4.8 | 12.9 | 0.00 | 0.53 | 0.00 | 90 | 1014.2 |
| 20260507041501 | 8 | 95 | 6.4 | 12.9 | 0.00 | 0.53 | 0.00 | 90 | 1018.7 |
| 20260507041100 | 8 | 76 | 4.8 | 12.9 | 0.00 | 0.53 | 0.00 | 90 | 1014.2 |
| 20260507040602 | 8 | 66 | 4.8 | 9.7 | 0.00 | 0.53 | 0.00 | 90 | 1014.3 |
| 20260507040500 | 8 | 87 | 4.8 | 11.3 | 0.00 | 0.53 | 0.00 | 90 | 1018.8 |
| 20260507040100 | 8 | 65 | 3.2 | 11.3 | 0.00 | 0.53 | 0.00 | 90 | 1014.3 |
| 20260507040005 | 8 | 101 | 6.4 | 11.3 | 0.00 | 0.53 | 0.00 | 90 | 1018.8 |
| 20260507040002 | 8 | 101 | 3.2 | 11.3 | 0.00 | 0.53 | 0.00 | 90 | 1014.3 |
| 20260507035559 | 8 | 81 | 4.8 | 11.3 | 0.00 | 0.56 | 0.00 | 90 | 1014.3 |
| 20260507035102 | 8 | 70 | 4.8 | 9.7 | 0.00 | 0.56 | 0.00 | 90 | 1014.4 |
| 20260507035001 | 8 | 95 | 4.8 | 9.7 | 0.00 | 0.56 | 0.00 | 90 | 1018.9 |
| 20260507034600 | 8 | 92 | 3.2 | 9.7 | 0.00 | 0.56 | 0.00 | 90 | 1014.4 |
| 20260507034502 | 8 | 105 | 4.8 | 9.7 | 0.00 | 0.56 | 0.00 | 90 | 1018.9 |
| 20260507034100 | 8 | 95 | 3.2 | 9.7 | 0.00 | 0.56 | 0.00 | 89 | 1014.4 |
| 20260507033600 | 8 | 81 | 3.2 | 9.7 | 0.00 | 0.56 | 0.00 | 89 | 1014.3 |
| 20260507033501 | 8 | 75 | 4.8 | 9.7 | 0.00 | 0.56 | 0.00 | 89 | 1018.9 |
| 20260507033100 | 8 | 127 | 4.8 | 11.3 | 0.00 | 0.56 | 0.00 | 89 | 1014.4 |
| 20260507033001 | 8 | 91 | 4.8 | 11.3 | 0.00 | 0.56 | 0.00 | 89 | 1018.9 |
| 20260507032601 | 8 | 116 | 4.8 | 11.3 | 0.00 | 0.56 | 0.00 | 89 | 1014.4 |
| 20260507032502 | 8 | 92 | 4.8 | 11.3 | 0.00 | 0.56 | 0.00 | 90 | 1018.9 |
| 20260507032100 | 8 | 113 | 4.8 | 9.7 | 0.00 | 0.56 | 0.00 | 90 | 1014.4 |
| 20260507032002 | 8 | 93 | 4.8 | 9.7 | 0.00 | 0.56 | 0.00 | 90 | 1018.9 |
| 20260507031600 | 8 | 111 | 3.2 | 9.7 | 0.00 | 0.56 | 0.00 | 90 | 1014.5 |
| 20260507031500 | 8 | 95 | 4.8 | 9.7 | 0.00 | 0.56 | 0.00 | 90 | 1019.0 |
| 20260507031103 | 8 | 63 | 4.8 | 9.7 | 0.00 | 0.56 | 0.00 | 89 | 1014.4 |
| 20260507031001 | 8 | 87 | 4.8 | 9.7 | 0.00 | 0.56 | 0.00 | 89 | 1019.0 |
| 20260507030559 | 8 | 67 | 3.2 | 9.7 | 0.00 | 0.56 | 0.00 | 90 | 1014.5 |
| 20260507030501 | 8 | 78 | 4.8 | 9.7 | 0.00 | 0.56 | 0.00 | 90 | 1019.0 |
| 20260507030101 | 9 | 89 | 3.2 | 8.0 | 0.00 | 0.56 | 0.00 | 90 | 1014.4 |
| 20260507030006 | 9 | 84 | 4.8 | 8.0 | 0.00 | 0.56 | 0.00 | 90 | 1018.9 |
| 20260507030003 | 9 | 84 | 4.8 | 8.0 | 0.00 | 0.56 | 0.00 | 90 | 1014.4 |
| 20260507025604 | 9 | 72 | 4.8 | 11.3 | 0.00 | 0.56 | 0.00 | 90 | 1014.4 |
| 20260507025501 | 9 | 101 | 6.4 | 11.3 | 0.00 | 0.56 | 0.00 | 90 | 1018.9 |
| 20260507025101 | 8 | 87 | 4.8 | 11.3 | 0.00 | 0.56 | 0.00 | 90 | 1014.3 |
| 20260507025001 | 8 | 101 | 6.4 | 11.3 | 0.00 | 0.56 | 0.00 | 90 | 1018.8 |
| 20260507024630 | 8 | 99 | 4.8 | 14.5 | 0.00 | 0.56 | 0.00 | 90 | 1014.3 |
| 20260507024501 | 8 | 70 | 6.4 | 14.5 | 0.00 | 0.56 | 0.00 | 90 | 1018.9 |
| 20260507024059 | 8 | 70 | 6.4 | 14.5 | 0.00 | 0.56 | 0.00 | 90 | 1014.4 |
| 20260507023602 | 8 | 105 | 4.8 | 12.9 | 0.00 | 0.56 | 0.00 | 90 | 1014.4 |
| 20260507023501 | 9 | 98 | 6.4 | 12.9 | 0.00 | 0.56 | 0.00 | 90 | 1019.0 |
| 20260507023100 | 9 | 100 | 6.4 | 12.9 | 0.00 | 0.56 | 0.00 | 89 | 1014.5 |
| 20260507023001 | 9 | 58 | 6.4 | 12.9 | 0.00 | 0.56 | 0.00 | 89 | 1019.0 |
| 20260507022600 | 9 | 74 | 8.0 | 12.9 | 0.00 | 0.56 | 0.00 | 89 | 1014.5 |
| 20260507022502 | 9 | 89 | 4.8 | 12.9 | 0.00 | 0.56 | 0.00 | 89 | 1019.0 |
| 20260507022100 | 9 | 80 | 4.8 | 9.7 | 0.00 | 0.56 | 0.00 | 89 | 1014.5 |
| 20260507022001 | 9 | 90 | 4.8 | 9.7 | 0.00 | 0.56 | 0.00 | 89 | 1019.1 |
| 20260507021600 | 9 | 113 | 3.2 | 9.7 | 0.00 | 0.56 | 0.00 | 89 | 1014.5 |
| 20260507021501 | 9 | 93 | 6.4 | 9.7 | 0.00 | 0.56 | 0.00 | 89 | 1019.0 |
| 20260507021100 | 9 | 81 | 4.8 | 9.7 | 0.00 | 0.56 | 0.00 | 89 | 1014.5 |
| 20260507021001 | 9 | 74 | 4.8 | 9.7 | 0.00 | 0.56 | 0.00 | 89 | 1019.0 |
| 20260507020601 | 9 | 63 | 4.8 | 9.7 | 0.00 | 0.56 | 0.00 | 89 | 1014.6 |
| 20260507020502 | 9 | 77 | 4.8 | 9.7 | 0.00 | 0.56 | 0.00 | 89 | 1019.1 |
| 20260507020111 | 9 | 64 | 3.2 | 9.7 | 0.00 | 0.56 | 0.00 | 89 | 1014.6 |
| 20260507020004 | 9 | 98 | 4.8 | 9.7 | 0.00 | 0.56 | 0.00 | 89 | 1019.1 |
| 20260507015559 | 9 | 108 | 4.8 | 9.7 | 0.00 | 0.56 | 0.00 | 89 | 1014.6 |
| 20260507015500 | 9 | 83 | 6.4 | 9.7 | 0.00 | 0.56 | 0.00 | 89 | 1019.1 |
| 20260507015100 | 9 | 66 | 4.8 | 11.3 | 0.00 | 0.56 | 0.00 | 89 | 1014.6 |
| 20260507015002 | 9 | 89 | 6.4 | 11.3 | 0.00 | 0.56 | 0.00 | 89 | 1019.2 |
| 20260507014609 | 9 | 78 | 6.4 | 11.3 | 0.00 | 0.56 | 0.00 | 89 | 1014.6 |
| 20260507014500 | 9 | 65 | 6.4 | 11.3 | 0.00 | 0.56 | 0.00 | 89 | 1019.2 |
| 20260507014100 | 9 | 65 | 4.8 | 11.3 | 0.00 | 0.56 | 0.00 | 88 | 1014.8 |
| 20260507013559 | 9 | 87 | 3.2 | 9.7 | 0.00 | 0.56 | 0.00 | 89 | 1014.7 |
| 20260507013501 | 9 | 83 | 4.8 | 9.7 | 0.00 | 0.56 | 0.00 | 89 | 1019.2 |
| 20260507013100 | 9 | 110 | 4.8 | 9.7 | 0.00 | 0.56 | 0.00 | 89 | 1014.7 |
| 20260507013001 | 10 | 93 | 4.8 | 9.7 | 0.00 | 0.56 | 0.00 | 89 | 1019.2 |
| 20260507012600 | 10 | 80 | 4.8 | 9.7 | 0.00 | 0.56 | 0.00 | 89 | 1014.7 |
| 20260507012500 | 10 | 74 | 4.8 | 9.7 | 0.00 | 0.56 | 0.00 | 89 | 1019.2 |
| 20260507012100 | 10 | 111 | 3.2 | 8.0 | 0.00 | 0.56 | 0.00 | 89 | 1014.6 |
| 20260507012004 | 10 | 96 | 4.8 | 8.0 | 0.00 | 0.56 | 0.00 | 89 | 1019.2 |
| 20260507011603 | 10 | 98 | 1.6 | 9.7 | 0.00 | 0.56 | 0.00 | 89 | 1014.6 |
| 20260507011501 | 10 | 113 | 4.8 | 9.7 | 0.00 | 0.56 | 0.00 | 89 | 1019.2 |
| 20260507011059 | 10 | 67 | 3.2 | 11.3 | 0.00 | 0.56 | 0.00 | 89 | 1014.6 |
| 20260507011001 | 10 | 98 | 4.8 | 11.3 | 0.00 | 0.56 | 0.00 | 89 | 1019.2 |
| 20260507010559 | 10 | 70 | 4.8 | 11.3 | 0.00 | 0.56 | 0.00 | 89 | 1014.7 |
| 20260507010501 | 10 | 111 | 4.8 | 11.3 | 0.00 | 0.56 | 0.00 | 89 | 1019.2 |
| 20260507010100 | 10 | 104 | 3.2 | 11.3 | 0.00 | 0.56 | 0.00 | 89 | 1014.7 |
| 20260507010004 | 10 | 87 | 6.4 | 11.3 | 0.00 | 0.56 | 0.00 | 89 | 1019.2 |
| 20260507010002 | 10 | 87 | 4.8 | 11.3 | 0.00 | 0.56 | 0.00 | 89 | 1014.7 |
| 20260507005600 | 10 | 85 | 6.4 | 11.3 | 0.00 | 0.56 | 0.00 | 89 | 1014.7 |
| 20260507005500 | 10 | 93 | 6.4 | 9.7 | 0.00 | 0.56 | 0.00 | 89 | 1019.3 |
| 20260507005059 | 10 | 101 | 4.8 | 11.3 | 0.00 | 0.56 | 0.00 | 89 | 1014.8 |
| 20260507005001 | 10 | 94 | 6.4 | 11.3 | 0.00 | 0.56 | 0.00 | 89 | 1019.4 |